K5SVV Weather Reports


Display with metric or nautical units.
time (UTC)temp
F
wind
direction
speed
MPH
gust
MPH
rain 1hr
in
rain 24hr
in
rain mn
in
humidity
%
barometer
mb
20260502130734 56 300 1.0 3.0 0.00 0.00 0.00 82 1020.2
20260502130231 55 243 0.0 0.0 0.00 0.00 0.00 82 1020.2
20260502123717 53 246 0.0 0.0 0.00 0.00 0.00 86 1020.0
20260502123214 52 249 0.0 0.0 0.00 0.00 0.00 87 1020.1
20260502122710 52 247 0.0 0.0 0.00 0.00 0.00 88 1020.0
20260502122207 51 263 1.0 1.0 0.00 0.00 0.00 88 1019.9
20260502121705 51 254 0.0 0.0 0.00 0.00 0.00 89 1019.7
20260502121203 51 260 0.0 0.0 0.00 0.00 0.00 89 1019.7
20260502120659 50 252 0.0 0.0 0.00 0.00 0.00 90 1019.6
20260502120156 50 245 0.0 0.0 0.00 0.00 0.00 89 1019.6
20260502115654 51 244 0.0 0.0 0.00 0.00 0.00 89 1019.4
20260502115149 51 249 0.0 0.0 0.00 0.00 0.00 89 1019.3
20260502114646 51 252 0.0 0.0 0.00 0.00 0.00 88 1019.4
20260502114143 51 254 0.0 0.0 0.00 0.00 0.00 87 1019.1
20260502113640 51 253 0.0 0.0 0.00 0.00 0.00 88 1019.0
20260502113139 51 248 0.0 0.0 0.00 0.00 0.00 88 1019.2
20260502112636 50 254 0.0 0.0 0.00 0.00 0.00 89 1018.6
20260502112133 50 261 0.0 0.0 0.00 0.00 0.00 90 1018.6
20260502111631 50 262 0.0 0.0 0.00 0.00 0.00 90 1018.6
20260502111128 50 261 0.0 0.0 0.00 0.00 0.00 89 1018.6
20260502110626 50 269 0.0 0.0 0.00 0.00 0.00 89 1018.6
20260502110123 50 261 0.0 0.0 0.00 0.00 0.00 90 1018.5
20260502105620 50 256 0.0 0.0 0.00 0.00 0.00 90 1018.3
20260502105117 50 256 0.0 0.0 0.00 0.00 0.00 90 1018.4
20260502104614 50 299 0.0 0.0 0.00 0.00 0.00 90 1018.2
20260502104112 50 277 0.0 0.0 0.00 0.00 0.00 90 1018.2
20260502103609 50 308 2.0 3.0 0.00 0.00 0.00 90 1018.2
20260502103108 50 269 0.0 0.0 0.00 0.00 0.00 90 1018.1
20260502102604 50 266 0.0 0.0 0.00 0.00 0.00 91 1018.2
20260502102101 50 264 0.0 0.0 0.00 0.00 0.00 91 1018.1
20260502101559 50 261 0.0 0.0 0.00 0.00 0.00 91 1018.0
20260502101057 50 282 0.0 0.0 0.00 0.00 0.00 91 1018.2
20260502100555 50 251 0.0 0.0 0.00 0.00 0.00 91 1018.4
20260502091529 50 263 0.0 0.0 0.00 0.00 0.00 92 1017.8
20260502091027 50 263 0.0 0.0 0.00 0.00 0.00 91 1017.8
20260502090524 50 263 0.0 0.0 0.00 0.00 0.00 91 1017.8
20260502071418 51 25 0.0 0.0 0.00 0.00 0.00 92 1018.1
20260502070916 51 26 0.0 0.0 0.00 0.00 0.00 92 1018.1
20260502070414 51 27 0.0 0.0 0.00 0.00 0.00 91 1017.8
20260502065912 51 27 0.0 0.0 0.00 0.00 0.00 92 1017.9
20260502065410 51 38 0.0 0.0 0.00 0.00 0.00 92 1017.9
20260502064908 51 38 0.0 0.0 0.00 0.00 0.00 92 1017.9
20260502064406 51 38 0.0 0.0 0.00 0.00 0.00 92 1017.9
20260502063903 51 38 0.0 0.0 0.00 0.00 0.00 92 1018.0
20260502063400 51 38 0.0 0.0 0.00 0.00 0.00 92 1018.3
20260502062858 51 39 0.0 0.0 0.00 0.00 0.00 92 1018.4
20260502062355 51 39 0.0 0.0 0.00 0.00 0.00 92 1018.4
20260502061854 51 39 0.0 0.0 0.00 0.00 0.00 92 1018.3
20260502061351 51 39 0.0 0.0 0.00 0.00 0.00 92 1018.4
20260502060847 51 39 0.0 0.0 0.00 0.00 0.00 92 1018.6
20260502060342 51 38 0.0 0.0 0.00 0.00 0.00 92 1018.4
20260502055840 52 38 0.0 0.0 0.00 0.00 0.00 92 1018.3
20260502055338 52 38 0.0 0.0 0.00 0.00 0.00 92 1018.4
20260502054837 51 38 0.0 0.0 0.00 0.00 0.00 93 1018.4
20260502054334 51 40 0.0 0.0 0.00 0.00 0.00 93 1018.3
20260502053831 51 40 0.0 0.0 0.00 0.00 0.00 93 1018.3
20260502053329 51 40 0.0 0.0 0.00 0.00 0.00 93 1018.3
20260502052826 51 40 0.0 0.0 0.00 0.00 0.00 93 1018.5
20260502052324 51 40 0.0 0.0 0.00 0.00 0.00 92 1018.2
20260502051821 52 40 0.0 0.0 0.00 0.00 0.00 93 1018.2
20260502051320 52 40 0.0 0.0 0.00 0.00 0.00 92 1018.1
20260502050816 52 40 0.0 0.0 0.00 0.00 0.00 93 1018.3
20260502050313 53 40 0.0 0.0 0.00 0.00 0.00 93 1018.3
20260502045810 52 40 0.0 0.0 0.00 0.08 0.08 93 1018.2
20260502045306 52 40 0.0 0.0 0.00 0.08 0.08 93 1018.0
20260502044804 52 40 0.0 0.0 0.00 0.08 0.08 93 1018.0
20260502044259 52 40 0.0 0.0 0.00 0.08 0.08 92 1017.9
20260502043757 52 40 0.0 0.0 0.00 0.08 0.08 92 1018.3
20260502043254 52 40 0.0 0.0 0.00 0.08 0.08 92 1018.1
20260502042753 52 40 0.0 0.0 0.00 0.08 0.08 92 1018.1
20260502042251 52 40 0.0 0.0 0.00 0.08 0.08 92 1018.4
20260502041749 53 40 0.0 0.0 0.00 0.08 0.08 92 1018.3
20260502041246 53 40 0.0 0.0 0.00 0.08 0.08 92 1018.0
20260502040743 53 40 0.0 0.0 0.00 0.08 0.08 92 1018.3
20260502040239 53 40 0.0 0.0 0.00 0.08 0.08 91 1018.1
20260502035735 53 40 0.0 0.0 0.00 0.08 0.08 91 1018.1
20260502035232 53 40 0.0 0.0 0.00 0.08 0.08 90 1018.2
20260502034730 53 40 0.0 0.0 0.00 0.08 0.08 90 1017.9
20260502034228 53 40 0.0 0.0 0.00 0.08 0.08 90 1018.2
20260502033726 53 40 0.0 0.0 0.00 0.08 0.08 89 1018.0
20260502033223 54 40 0.0 0.0 0.00 0.08 0.08 89 1017.9
20260502032720 54 40 0.0 0.0 0.00 0.08 0.08 88 1017.9
20260502032215 55 40 0.0 0.0 0.00 0.08 0.08 87 1017.9
20260502031714 55 40 0.0 0.0 0.00 0.08 0.08 86 1017.9
20260502031212 55 40 0.0 0.0 0.00 0.08 0.08 85 1017.6
20260502030710 56 40 0.0 0.0 0.00 0.08 0.08 85 1017.9
20260502030208 56 40 0.0 0.0 0.00 0.08 0.08 84 1017.5
20260502025704 56 40 0.0 0.0 0.00 0.08 0.08 84 1017.6
20260502025202 56 40 0.0 0.0 0.00 0.08 0.08 84 1017.2
20260502024700 56 37 0.0 0.0 0.00 0.08 0.08 84 1017.4
20260502024158 56 37 0.0 0.0 0.00 0.08 0.08 84 1017.2
20260502023656 56 52 0.0 0.0 0.00 0.08 0.08 85 1017.2
20260502023153 56 73 0.0 0.0 0.00 0.08 0.08 85 1017.3
20260502022650 56 73 0.0 0.0 0.00 0.08 0.08 85 1017.3
20260502022147 56 74 0.0 0.0 0.00 0.08 0.08 85 1017.2
20260502021644 56 74 0.0 0.0 0.00 0.08 0.08 86 1017.2
20260502021141 56 74 0.0 0.0 0.00 0.08 0.08 86 1017.1
20260502020638 56 74 0.0 0.0 0.00 0.08 0.08 85 1016.9
20260502020135 56 74 0.0 0.0 0.00 0.08 0.08 85 1016.9
20260502015633 56 74 0.0 0.0 0.00 0.08 0.08 84 1016.7
20260502015129 56 83 0.0 0.0 0.00 0.08 0.08 84 1016.9
20260502014627 56 92 0.0 0.0 0.00 0.08 0.08 84 1016.7
20260502014124 56 93 0.0 0.0 0.00 0.08 0.08 83 1016.6
20260502013620 57 93 0.0 0.0 0.00 0.08 0.08 83 1016.4
20260502013115 56 93 0.0 0.0 0.00 0.08 0.08 83 1016.6
20260502012613 56 93 0.0 0.0 0.00 0.08 0.08 83 1016.1
20260502012111 56 91 0.0 1.0 0.00 0.08 0.08 83 1016.4
20260502011608 57 104 0.0 0.0 0.00 0.08 0.08 83 1016.2
20260502011103 57 104 0.0 0.0 0.00 0.08 0.08 82 1016.0
20260502010601 57 104 0.0 0.0 0.00 0.08 0.08 81 1016.0
20260502010057 57 99 0.0 0.0 0.00 0.08 0.08 81 1016.1
20260502005555 57 91 0.0 0.0 0.00 0.08 0.08 80 1015.8
20260502005052 57 54 0.0 0.0 0.00 0.08 0.08 80 1015.9
20260502004542 57 35 0.0 0.0 0.00 0.08 0.08 80 1015.5
20260502004039 57 56 1.0 2.0 0.00 0.08 0.08 79 1015.4
20260502003537 57 3 2.0 3.0 0.00 0.08 0.08 79 1015.5
20260502003034 58 28 0.0 0.0 0.00 0.08 0.08 79 1015.3
20260502002530 58 32 0.0 0.0 0.00 0.08 0.08 78 1015.4
20260502002028 58 33 0.0 0.0 0.00 0.08 0.08 77 1015.2
20260502001525 58 69 0.0 0.0 0.00 0.08 0.08 77 1015.1
20260502001022 59 74 0.0 0.0 0.00 0.08 0.08 76 1015.0
20260502000521 59 84 0.0 0.0 0.00 0.08 0.08 76 1014.9
20260502000017 59 39 0.0 0.0 0.00 0.08 0.08 76 1015.1
20260501235513 58 84 1.0 2.0 0.00 0.08 0.08 76 1015.0
20260501235009 58 40 0.0 1.0 0.00 0.08 0.08 76 1014.9
20260501234505 59 355 2.0 3.0 0.00 0.08 0.08 75 1014.9
20260501234003 59 51 2.0 4.0 0.00 0.08 0.08 75 1015.0
20260501233501 59 98 0.0 0.0 0.00 0.08 0.08 75 1015.0
20260501232956 59 38 2.0 3.0 0.00 0.08 0.08 74 1014.9
20260501232454 59 28 4.0 6.0 0.00 0.08 0.08 72 1015.1
20260501231950 59 35 0.0 0.0 0.00 0.08 0.08 73 1014.8
20260501231449 59 45 3.0 4.0 0.00 0.08 0.08 75 1014.9
20260501230947 59 71 3.0 4.0 0.00 0.08 0.08 75 1014.8
20260501230446 59 17 4.0 6.0 0.00 0.08 0.08 73 1015.0
20260501225943 60 59 1.0 2.0 0.00 0.08 0.08 71 1015.0
20260501225440 60 14 4.0 7.0 0.00 0.08 0.08 68 1014.9
20260501224936 60 19 6.0 7.0 0.00 0.08 0.08 68 1014.9
20260501224434 60 54 2.0 3.0 0.00 0.08 0.08 69 1014.8
20260501223931 60 33 2.0 3.0 0.00 0.08 0.08 70 1014.5
20260501223427 60 45 2.0 2.0 0.00 0.08 0.08 70 1014.5
20260501222922 60 23 2.0 6.0 0.00 0.08 0.08 68 1014.1
20260501222420 60 355 10.0 15.0 0.00 0.08 0.08 68 1014.2
20260501221916 60 39 7.0 9.0 0.00 0.08 0.08 69 1014.5
20260501221414 60 6 6.0 7.0 0.00 0.08 0.08 70 1014.0
20260501220911 61 24 11.0 13.0 0.00 0.08 0.08 68 1014.1
20260501220409 61 2 5.0 7.0 0.00 0.08 0.08 71 1014.2
20260501215904 60 18 6.0 7.0 0.00 0.08 0.08 71 1014.1
20260501215401 60 1 9.0 10.0 0.00 0.08 0.08 70 1014.1
20260501214857 60 344 5.0 8.0 0.00 0.08 0.08 72 1014.0
20260501214352 60 31 5.0 7.0 0.00 0.08 0.08 71 1013.9
20260501213848 60 26 5.0 6.0 0.00 0.08 0.08 70 1013.9
20260501213345 60 10 6.0 8.0 0.00 0.08 0.08 72 1013.9
20260501212840 60 1 9.0 11.0 0.00 0.08 0.08 70 1014.6
20260501212337 60 4 5.0 6.0 0.00 0.08 0.08 71 1014.2
20260501211834 60 2 6.0 7.0 0.00 0.08 0.08 71 1014.1
20260501211332 60 334 6.0 8.0 0.00 0.08 0.08 70 1014.2
20260501210828 60 356 7.0 8.0 0.00 0.08 0.08 69 1014.4
20260501210325 60 355 4.0 6.0 0.00 0.08 0.08 69 1014.6
20260501205816 60 27 4.0 6.0 0.00 0.08 0.08 69 1014.6
20260501205313 59 14 3.0 4.0 0.00 0.08 0.08 69 1014.6
20260501204810 59 70 4.0 4.0 0.00 0.08 0.08 69 1014.8
20260501204307 59 28 5.0 7.0 0.00 0.08 0.08 69 1014.6
20260501203803 59 36 4.0 4.0 0.00 0.08 0.08 69 1014.5
20260501203301 59 18 6.0 8.0 0.00 0.08 0.08 68 1014.9
20260501202757 59 36 5.0 6.0 0.00 0.08 0.08 70 1014.6
20260501202254 59 30 1.0 3.0 0.00 0.08 0.08 71 1014.7
20260501201751 59 42 4.0 4.0 0.00 0.08 0.08 70 1015.0
20260501201248 59 23 3.0 4.0 0.00 0.08 0.08 71 1015.0
20260501200744 59 22 4.0 4.0 0.00 0.08 0.08 71 1015.4
20260501200242 59 17 3.0 4.0 0.00 0.08 0.08 72 1015.2
20260501195739 59 21 5.0 6.0 0.00 0.08 0.08 68 1015.3
20260501195235 59 34 0.0 1.0 0.00 0.08 0.08 69 1015.2
20260501194731 59 40 1.0 2.0 0.00 0.08 0.08 67 1015.4
20260501194227 59 62 0.0 0.0 0.00 0.08 0.08 69 1015.7
20260501193723 59 81 2.0 2.0 0.00 0.08 0.08 68 1015.3
20260501193222 59 77 0.0 0.0 0.00 0.08 0.08 69 1015.4
20260501192719 59 67 2.0 2.0 0.00 0.08 0.08 69 1014.5
20260501192216 59 31 2.0 3.0 0.00 0.08 0.08 69 1014.5
20260501191713 59 44 2.0 4.0 0.00 0.08 0.08 68 1014.2
20260501191211 59 45 4.0 6.0 0.00 0.08 0.08 66 1014.1
20260501190707 59 34 0.0 0.0 0.00 0.08 0.08 69 1014.1
20260501190202 59 57 1.0 3.0 0.00 0.08 0.08 68 1014.1
20260501185659 59 72 4.0 6.0 0.00 0.08 0.08 66 1014.7
20260501185155 59 45 2.0 2.0 0.00 0.08 0.08 67 1015.0
20260501184650 59 22 5.0 6.0 0.00 0.08 0.08 66 1014.9
20260501184145 59 2 4.0 4.0 0.00 0.08 0.08 69 1015.2
20260501183642 59 43 3.0 4.0 0.00 0.08 0.08 68 1014.7
20260501183138 59 44 1.0 2.0 0.00 0.08 0.08 68 1014.8
20260501182635 60 48 7.0 14.0 0.00 0.08 0.08 66 1014.5
20260501182132 60 77 2.0 2.0 0.00 0.08 0.08 69 1014.6
20260501181629 60 16 4.0 7.0 0.00 0.08 0.08 71 1014.7
20260501181126 60 29 2.0 3.0 0.00 0.08 0.08 70 1014.7
20260501180624 60 27 3.0 4.0 0.00 0.08 0.08 72 1014.8
20260501180120 60 31 7.0 9.0 0.00 0.08 0.08 71 1014.7
20260501175617 60 55 3.0 6.0 0.00 0.08 0.08 72 1015.0
20260501175114 61 47 7.0 14.0 0.00 0.08 0.08 72 1015.0
20260501174610 61 129 4.0 4.0 0.00 0.08 0.08 73 1015.2
20260501174108 60 31 2.0 2.0 0.00 0.08 0.08 74 1015.2
20260501173605 59 101 3.0 4.0 0.00 0.08 0.08 75 1015.2
20260501173102 59 48 1.0 2.0 0.00 0.08 0.08 76 1015.3
20260501172557 58 71 2.0 3.0 0.00 0.08 0.08 75 1015.1
20260501172053 58 87 3.0 4.0 0.00 0.08 0.08 75 1015.0
20260501171549 58 108 3.0 4.0 0.00 0.08 0.08 76 1015.2
20260501171046 57 72 7.0 13.0 0.00 0.08 0.08 76 1015.0
20260501170543 57 45 5.0 7.0 0.00 0.08 0.08 80 1015.2
20260501170040 57 45 3.0 6.0 0.00 0.08 0.08 81 1015.6
20260501165538 57 58 6.0 9.0 0.00 0.08 0.08 83 1015.7
20260501165035 57 50 5.0 7.0 0.00 0.08 0.08 84 1015.9
20260501164533 57 46 1.0 1.0 0.00 0.08 0.08 86 1015.6
20260501164029 57 50 0.0 0.0 0.00 0.08 0.08 86 1015.7
20260501163526 56 41 4.0 8.0 0.00 0.08 0.08 86 1015.5
20260501163022 57 44 4.0 10.0 0.00 0.08 0.08 87 1015.5
20260501162519 56 24 2.0 2.0 0.00 0.08 0.08 89 1015.5
20260501162016 56 52 2.0 2.0 0.00 0.08 0.08 90 1015.9
20260501161513 56 15 2.0 4.0 0.00 0.08 0.08 90 1016.0
20260501161010 55 34 0.0 0.0 0.00 0.08 0.08 90 1016.1
20260501160507 55 11 4.0 4.0 0.00 0.08 0.08 91 1016.0
20260501160004 55 63 1.0 3.0 0.00 0.08 0.08 92 1015.9
20260501155500 55 4 1.0 2.0 0.00 0.08 0.08 93 1016.2
20260501154957 55 48 1.0 2.0 0.00 0.08 0.08 94 1016.2
20260501154455 55 104 3.0 4.0 0.00 0.08 0.08 95 1015.6
20260501153951 55 18 1.0 3.0 0.00 0.08 0.08 95 1015.5
20260501153449 55 23 0.0 0.0 0.00 0.08 0.08 95 1015.5
20260501152944 55 26 0.0 1.0 0.00 0.08 0.08 96 1015.5
20260501152442 55 32 5.0 8.0 0.00 0.08 0.08 96 1015.8
20260501151939 55 45 0.0 0.0 0.00 0.08 0.08 96 1016.0
20260501151436 55 64 0.0 0.0 0.00 0.08 0.08 96 1015.7
20260501150932 55 56 0.0 0.0 0.00 0.08 0.08 96 1016.0
20260501150428 55 112 0.0 0.0 0.00 0.08 0.08 96 1015.8
20260501145925 55 138 0.0 0.0 0.00 0.08 0.08 96 1015.7
20260501145421 55 85 0.0 0.0 0.05 0.08 0.08 96 1015.5
20260501144919 55 47 2.0 3.0 0.05 0.08 0.08 96 1015.4